This is the latest recevied weather packets stored in our database for station/object KP4CRN. If no packets are shown the sender has not sent any weather packets the latest 10 day(s).
| Time | Temp. | Humidity | Pressure | Rain* | Wind** | Luminosity | Snow |
|---|---|---|---|---|---|---|---|
| 1777675764 | 25.56° C | 97% | 1013.9 hPa | 1.27 mm | - | 0 W/m² | - |
| 1777675462 | 26.11° C | 96% | 1014.1 hPa | 3.05 mm | - | 1 W/m² | - |
| 1777675159 | 26.11° C | 95% | 1013.8 hPa | 1.78 mm | - | 1 W/m² | - |
| 1777674855 | 26.67° C | 93% | 1013.8 hPa | 0 mm | - | 2 W/m² | - |
| 1777674551 | 27.22° C | 91% | 1013.8 hPa | 0 mm | - | 3 W/m² | - |
| 1777674249 | 27.22° C | 91% | 1013.8 hPa | 0 mm | - | 6 W/m² | - |
| 1777673945 | 27.22° C | 92% | 1013.9 hPa | 0 mm | - | 8 W/m² | - |
| 1777673642 | 27.22° C | 93% | 1013.8 hPa | 0 mm | - | 9 W/m² | - |
| 1777673340 | 26.67° C | 93% | 1013.7 hPa | 0 mm | - | 11 W/m² | - |
| 1777673037 | 26.67° C | 94% | 1013.8 hPa | 0 mm | - | 11 W/m² | - |
| 1777672733 | 26.67° C | 94% | 1013.6 hPa | 0 mm | - | 15 W/m² | - |
| 1777672429 | 27.22° C | 92% | 1013.7 hPa | 0 mm | - | 11 W/m² | - |
| 1777672125 | 27.22° C | 92% | 1013.7 hPa | 0 mm | - | 14 W/m² | - |
| 1777671820 | 27.78° C | 90% | 1013.7 hPa | 0 mm | - | 24 W/m² | - |
| 1777671516 | 27.78° C | 89% | 1013.6 hPa | 0 mm | - | 28 W/m² | - |
| 1777671213 | 27.78° C | 90% | 1013.3 hPa | 0 mm | - | 24 W/m² | - |
| 1777670909 | 27.78° C | 90% | 1013.5 hPa | 0 mm | - | 20 W/m² | - |
| 1777670606 | 27.78° C | 90% | 1013.6 hPa | 0 mm | - | 29 W/m² | - |
| 1777670303 | 27.78° C | 89% | 1013.4 hPa | 0 mm | - | 34 W/m² | - |
| 1777670001 | 27.78° C | 90% | 1013.4 hPa | 0 mm | - | 25 W/m² | - |
| 1777669697 | 27.78° C | 89% | 1013.4 hPa | 0 mm | - | 13 W/m² | - |
| 1777669394 | 27.78° C | 87% | 1013.3 hPa | 0 mm | - | 10 W/m² | - |
| 1777669090 | 28.33° C | 86% | 1013.2 hPa | 0 mm | - | 13 W/m² | - |
| 1777668788 | 28.89° C | 85% | 1013.4 hPa | 0 mm | - | 19 W/m² | - |
| 1777668484 | 29.44° C | 81% | 1013.5 hPa | 0 mm | - | 25 W/m² | - |
* Rain latest hour (hover to see other rain measurements)
** Current wind speed in m/s (hover to see current wind gust speed)